Location: Unspecified
(0.0000°N, 0.0000°E)
Time: 17:52:04
(UTC+00:00)

STARLINK 1058 - Pass Details

Date: 16 January 2020
Orbit: 548 x 551 km, 53.0° (Epoch: 17 January)

Event Time Altitude Azimuth Distance (km) Brightness Sun altitude
Rises 19:30:17 0° 306° (NW) 2,700 7.6 -18.8°
Reaches altitude 10° 19:32:46 10° 293° (WNW) 1,811 6.9 -19.3°
Maximum altitude 19:36:14 26° 236° (SW) 1,092 5.9 -20.1°
Drops below altitude 10° 19:39:44 10° 178° (S) 1,818 6.5 -20.9°
Sets 19:42:14 0° 165° (SSE) 2,714 7.3 -21.5°
